Tracking 28518 objects as of 2-Mar-2024
HD Live streaming from Space Station
objects crossing your sky now

OBJECT P

Track OBJECT P now!
10-day predictions


NORAD ID: 55261
Int'l Code: 2023-007P
Perigee: 432.8 km
Apogee: 441.4 km
Inclination: 97.3 °
Period: 93.2 minutes
Semi major axis: 6808 km
RCS: Unknown
Launch date: January 15, 2023
Source: People's Republic of China (PRC)
Launch site: Taiyaun Space Center, China (TSC)
Your satellite tracking list
Your tracking list is empty




NASA's NSSDC Master Catalog

Two Line Element Set (TLE):
1 55261U 23007P   24061.78784893  .00032023  00000-0  66804-3 0  9995
2 55261  97.3219 139.5462 0006330 273.5575  86.4950 15.45470574 63124
Source of the keplerian elements: AFSPC